Location: Unspecified
(17.6330°N, 0.0000°E)
Time: 02:24:26
(UTC+00:00)

Courier 1B Rocket - Pass Details

Date: 30 June 2019
Orbit: 920 x 1202 km, 28.2° (Epoch: 16 July)

Event Time Altitude Azimuth Distance (km) Brightness Sun altitude
Exits shadow 03:12:25 17° 304° (NW) 2,554 7.0 -28.4°
Maximum altitude 03:17:29 35° 1° (N) 1,685 6.5 -27.5°
Drops below altitude 10° 03:23:49 10° 66° (ENE) 2,846 8.4 -26.3°
Sets 03:26:42 0° 75° (ENE) 3,753 9.1 -25.8°
